User: anonymous   Login
Location: Caltech
(34.1382°N, 118.1253°W)
Time: 13:00:58
(UTC-08:00)
Language:

Iridium 95 - Orbit

View from above orbital plane
View from above orbital plane
View from above satellite
View from above satellite

Ground track
Ground track

The orbit data is extracted from the following two-line orbital elements,

1 27375U 02005D   17050.21656363  .00000171  00000-0  54001-4 0  9999
2 27375  86.3770 336.7697 0002254  84.1282 276.0170 14.34216499794002
Epoch (UTC): 19 February 2017 05:11:51
Eccentricity: 0.0002254
inclination: 86.3770°
perigee height: 776 km
apogee height: 779 km
right ascension of ascending node: 336.7697°
argument of perigee: 84.1282°
revolutions per day: 14.34216499
mean anomaly at epoch: 276.0170°
orbit number at epoch: 79400

The dashed part of the orbit path shows where the satellite is in the earth's shadow,  

DLR